Wind_Speed
13 11 11 10 10 10 9 8 9 10 8 7 7 7 7 8 9 10 11 12 13 15
14 13 12 12 12 12 13 11 11 11 10 10 10 9 9 10 10 11 12 14 15 16
16 15 15 15 14 15 15 15 14 13 13 13 14 13 13 13 14 14 14 15 17 18
18 18 17 16 16 18 18 18 18 17 17 17 17 17 17 17 17 18 19 19 20 21
20 20 19 18 20 21 20 21 22 22 21 21 21 21 21 22 22 23 23 24 25 26
21 22 21 22 23 23 23 24 25 25 25 25 25 25 25 26 27 27 28 28 29 30
23 23 24 25 26 26 26 26 26 26 27 27 28 28 29 30 31 32 33 33 33 33
25 26 27 27 28 27 27 28 28 28 28 29 30 30 30 32 33 34 35 34 34 34
25 26 26 26 26 27 27 27 28 28 30 30 30 30 31 32 34 34 32 31 32 33
17 19 20 21 22 23 24 26 26 27 29 30 31 30 32 32 32 31 32 32 32 34
14 15 17 19 20 22 24 25 26 27 28 30 30 30 31 31 31 32 33 34 35 36
16 18 19 21 22 23 25 26 27 27 27 28 29 27 27 28 30 31 33 33 32 31
18 19 20 21 22 22 23 24 24 24 24 25 26 25 26 27 27 29 30 30 29 30
19 20 21 21 21 21 22 22 23 24 25 26 26 27 27 25 27 30 32 33 34 33
Wind_Direction
242 244 248 253 259 260 260 267 276 281 282 285 292 306 319 332 341 345 347 348 348 348
249 254 257 260 264 265 268 263 263 268 276 281 287 294 301 309 317 322 327 329 331 334
251 256 260 262 267 268 267 266 266 267 271 276 280 285 291 297 302 306 312 316 318 321
256 260 264 269 273 272 271 272 274 274 274 275 277 281 285 289 293 297 301 304 307 310
260 264 267 272 273 274 277 277 277 276 276 277 277 279 282 284 287 290 293 296 299 302
262 264 268 269 271 273 274 275 276 277 278 279 280 281 282 284 286 288 290 292 294 297
262 265 266 268 270 272 274 276 277 278 279 280 281 282 284 285 286 287 288 290 291 292
260 263 263 265 267 270 272 274 276 278 279 281 283 284 286 287 289 289 288 288 287 288
260 262 265 268 270 272 274 276 277 279 280 281 282 283 284 286 288 288 287 287 287 285
270 269 271 272 274 275 276 277 278 279 281 283 284 286 286 286 286 284 283 283 283 284
280 278 278 278 279 280 281 283 285 286 287 288 289 290 289 289 287 284 283 283 283 282
287 285 284 285 285 286 287 288 288 290 290 291 292 293 293 292 291 290 289 288 286 283
293 291 290 290 290 291 291 290 291 292 294 296 299 301 299 297 296 293 292 290 288 286
297 296 295 296 296 296 295 295 296 296 296 297 301 302 303 299 293 292 296 298 297 290
Height
1558 1558 1559 1559 1559 1558 1557 1556 1556 1555 1554 1553 1552 1551 1550 1549 1547 1546 1544 1543 1542 1540
1556 1556 1556 1556 1556 1555 1555 1553 1553 1552 1552 1550 1549 1549 1547 1546 1545 1544 1542 1541 1539 1537
1552 1552 1552 1553 1552 1551 1552 1551 1550 1549 1548 1547 1546 1545 1544 1542 1541 1540 1539 1538 1536 1534
1549 1549 1549 1548 1548 1547 1547 1546 1546 1545 1544 1543 1542 1541 1539 1539 1537 1536 1535 1534 1532 1530
1544 1544 1544 1543 1543 1542 1542 1541 1541 1540 1539 1539 1537 1536 1535 1534 1532 1531 1530 1528 1527 1525
1539 1539 1539 1538 1538 1537 1537 1536 1536 1535 1534 1533 1532 1530 1529 1528 1526 1525 1523 1522 1520 1519
1533 1533 1533 1532 1532 1532 1531 1530 1529 1529 1528 1527 1525 1524 1523 1521 1519 1517 1515 1514 1512 1510
1525 1525 1526 1526 1525 1525 1524 1524 1523 1523 1522 1520 1518 1517 1515 1513 1510 1508 1506 1504 1503 1502
1520 1519 1518 1518 1517 1517 1517 1516 1516 1515 1513 1512 1511 1510 1508 1505 1502 1500 1497 1495 1493 1492
1515 1514 1514 1513 1512 1511 1510 1509 1508 1507 1505 1503 1502 1500 1498 1496 1493 1490 1488 1486 1484 1481
1511 1510 1509 1508 1507 1506 1505 1503 1501 1499 1497 1494 1493 1491 1488 1486 1483 1480 1477 1475 1473 1470
1507 1506 1504 1503 1501 1499 1497 1496 1493 1491 1489 1486 1484 1482 1480 1478 1474 1470 1467 1465 1462 1460
1501 1499 1498 1497 1494 1492 1490 1488 1486 1484 1481 1479 1476 1475 1472 1470 1467 1463 1460 1457 1454 1451
1496 1494 1492 1490 1488 1486 1484 1482 1480 1477 1475 1473 1471 1467 1465 1463 1461 1456 1451 1447 1443 1441